• In Russia
  • List of Countries
  • For 7 days
  • Water Temperature
  • Satellite Maps
  • Weather Map
  • Weather Widgets
  • user-avatar
    Login

    Hourly Weather Samarta

    Today, 18 October, Thursday

    Time Temperature Precipitation Wind Pressure Humidity
    00:00 +3°C° 0 mm 1 mps 690 mmHg 75%
    01:00 +3°C° 0 mm 1 mps 690 mmHg 76%
    02:00 +3°C° 0 mm 1 mps 690 mmHg 77%
    03:00 +3°C° 0 mm 1 mps 691 mmHg 78%
    04:00 +2°C° 0 mm 1 mps 691 mmHg 79%
    05:00 +2°C° 0 mm 1 mps 691 mmHg 78%
    06:00 +3°C° 0 mm 1 mps 691 mmHg 77%
    07:00 +3°C° 0 mm 1 mps 691 mmHg 74%
    08:00 +5°C° 0 mm 1 mps 691 mmHg 66%
    09:00 +8°C° 0 mm 1 mps 691 mmHg 58%
    10:00 +9°C° 0 mm 2 mps 691 mmHg 50%
    11:00 +10°C° 0 mm 2 mps 690 mmHg 46%
    12:00 +12°C° 0 mm 2 mps 690 mmHg 43%
    13:00 +14°C° 0 mm 2 mps 690 mmHg 40%
    14:00 +12°C° 0 mm 2 mps 690 mmHg 44%
    15:00 +10°C° 0 mm 2 mps 690 mmHg 49%
    16:00 +10°C° 0 mm 1 mps 690 mmHg 53%
    17:00 +9°C° 0 mm 1 mps 690 mmHg 57%
    18:00 +8°C° 0 mm 1 mps 690 mmHg 60%
    19:00 +6°C° 0 mm 1 mps 690 mmHg 64%
    20:00 +6°C° 0 mm 1 mps 690 mmHg 66%
    21:00 +5°C° 0 mm 1 mps 690 mmHg 67%
    22:00 +5°C° 0 mm 1 mps 690 mmHg 68%
    23:00 +4°C° 0 mm 1 mps 690 mmHg 69%

    Tomorrow, 19 October, Friday

    Time Temperature Precipitation Wind Pressure Humidity
    00:00 +4°C° 0 mm 1 mps 690 mmHg 70%
    01:00 +3°C° 0 mm 1 mps 690 mmHg 72%
    02:00 +3°C° 0 mm 1 mps 690 mmHg 72%
    03:00 +3°C° 0 mm 1 mps 690 mmHg 73%
    04:00 +3°C° 0 mm 1 mps 690 mmHg 74%
    05:00 +3°C° 0 mm 1 mps 690 mmHg 73%
    06:00 +3°C° 0 mm 1 mps 690 mmHg 73%
    07:00 +3°C° 0 mm 1 mps 690 mmHg 72%
    08:00 +4°C° 0 mm 2 mps 690 mmHg 62%
    09:00 +7°C° 0 mm 2 mps 689 mmHg 52%
    10:00 +9°C° 0 mm 2 mps 689 mmHg 41%
    11:00 +10°C° 0 mm 2 mps 689 mmHg 38%
    12:00 +12°C° 0 mm 2 mps 689 mmHg 34%
    13:00 +12°C° 0 mm 3 mps 688 mmHg 30%
    14:00 +12°C° 0 mm 2 mps 688 mmHg 35%
    15:00 +10°C° 0 mm 1 mps 687 mmHg 39%
    16:00 +8°C° 0 mm 0 mps 687 mmHg 43%
    17:00 +8°C° 0 mm 1 mps 687 mmHg 45%
    18:00 +7°C° 0 mm 1 mps 687 mmHg 48%
    19:00 +5°C° 0 mm 1 mps 687 mmHg 50%
    20:00 +5°C° 0 mm 1 mps 687 mmHg 52%
    21:00 +4°C° 0 mm 1 mps 687 mmHg 53%
    22:00 +4°C° 0 mm 1 mps 687 mmHg 54%
    23:00 +3°C° 0 mm 1 mps 687 mmHg 56%

    Day after tomorrow, 20 October, Saturday

    Time Temperature Precipitation Wind Pressure Humidity
    00:00 +3°C° 0 mm 1 mps 687 mmHg 57%
    01:00 +2°C° 0 mm 1 mps 686 mmHg 59%
    02:00 +2°C° 0 mm 1 mps 686 mmHg 60%
    03:00 +2°C° 0 mm 1 mps 686 mmHg 61%
    04:00 +1°C° 0 mm 1 mps 685 mmHg 62%
    05:00 +1°C° 0 mm 1 mps 685 mmHg 62%
    06:00 +2°C° 0 mm 1 mps 685 mmHg 61%
    07:00 +2°C° 0 mm 1 mps 685 mmHg 61%
    08:00 +4°C° 0 mm 1 mps 684 mmHg 54%
    09:00 +6°C° 0 mm 1 mps 684 mmHg 47%
    10:00 +8°C° 0 mm 1 mps 684 mmHg 40%
    11:00 +9°C° 0 mm 1 mps 684 mmHg 40%
    12:00 +9°C° 0 mm 1 mps 684 mmHg 40%
    13:00 +9°C° 0 mm 0 mps 683 mmHg 41%
    14:00 +8°C° 0 mm 0 mps 683 mmHg 45%
    15:00 +7°C° 0 mm 0 mps 683 mmHg 50%
    16:00 +6°C° 0 mm 0 mps 683 mmHg 55%
    17:00 +5°C° 0 mm 0 mps 683 mmHg 58%
    18:00 +4°C° 0 mm 0 mps 683 mmHg 61%
    19:00 +3°C° 0 mm 0 mps 684 mmHg 64%
    20:00 +4°C° 0 mm 1 mps 684 mmHg 66%
    21:00 +4°C° 0 mm 1 mps 684 mmHg 68%
    22:00 +3°C° 0 mm 1 mps 684 mmHg 71%
    23:00 +3°C° 0 mm 1 mps 684 mmHg 76%

    21 October, Sunday

    Time Temperature Precipitation Wind Pressure Humidity
    00:00 +2°C° 0 mm 1 mps 684 mmHg 81%
    01:00 +1°C° 0 mm 1 mps 684 mmHg 86%
    02:00 +1°C° 0 mm 1 mps 684 mmHg 88%
    03:00 0°C° 0 mm 1 mps 684 mmHg 91%
    04:00 0°C° 0 mm 1 mps 684 mmHg 94%
    05:00 0°C° 0 mm 1 mps 684 mmHg 93%
    06:00 +1°C° 0 mm 1 mps 684 mmHg 93%
    07:00 +1°C° 0 mm 1 mps 684 mmHg 92%
    08:00 +2°C° 0 mm 1 mps 684 mmHg 85%
    09:00 +3°C° 0 mm 1 mps 684 mmHg 79%
    10:00 +5°C° 0 mm 1 mps 683 mmHg 72%
    11:00 +5°C° 0 mm 1 mps 683 mmHg 70%
    12:00 +6°C° 0 mm 1 mps 683 mmHg 68%
    13:00 +6°C° 0 mm 1 mps 683 mmHg 65%
    14:00 +6°C° 0.1 mm 1 mps 682 mmHg 69%
    15:00 +5°C° 0.1 mm 1 mps 682 mmHg 72%
    16:00 +4°C° 0.1 mm 0 mps 682 mmHg 76%
    17:00 +3°C° 0.1 mm 0 mps 682 mmHg 79%
    18:00 +3°C° 0.1 mm 0 mps 683 mmHg 82%
    19:00 +2°C° 0.1 mm 0 mps 683 mmHg 86%
    20:00 +2°C° 0.2 mm 0 mps 683 mmHg 87%
    21:00 +3°C° 0.2 mm 1 mps 683 mmHg 88%
    22:00 +2°C° 0.2 mm 1 mps 683 mmHg 90%
    23:00 +2°C° 0.3 mm 1 mps 683 mmHg 91%

    22 October, Monday

    Time Temperature Precipitation Wind Pressure Humidity
    00:00 +2°C° 0.3 mm 1 mps 683 mmHg 92%
    01:00 +2°C° 0.3 mm 1 mps 683 mmHg 93%
    02:00 +2°C° 0.3 mm 1 mps 683 mmHg 93%
    03:00 +1°C° 0.3 mm 2 mps 683 mmHg 93%
    04:00 +1°C° 0.3 mm 2 mps 682 mmHg 93%
    05:00 +1°C° 0.3 mm 2 mps 683 mmHg 93%
    06:00 +1°C° 0.3 mm 2 mps 683 mmHg 92%
    07:00 +1°C° 0.3 mm 2 mps 683 mmHg 92%
    08:00 +1°C° 0.1 mm 2 mps 683 mmHg 88%
    09:00 +2°C° 0.1 mm 2 mps 684 mmHg 85%
    10:00 +2°C° 0.1 mm 2 mps 684 mmHg 81%
    11:00 +2°C° 0.1 mm 3 mps 684 mmHg 79%
    12:00 +2°C° 0.1 mm 3 mps 683 mmHg 78%
    13:00 +2°C° 0.1 mm 3 mps 683 mmHg 76%
    14:00 +2°C° 0.1 mm 3 mps 683 mmHg 77%
    15:00 +2°C° 0.1 mm 3 mps 683 mmHg 78%
    16:00 +1°C° 0.1 mm 3 mps 683 mmHg 79%
    17:00 0°C° 0 mm 3 mps 683 mmHg 82%
    18:00 -1°C° 0 mm 2 mps 684 mmHg 84%
    19:00 -2°C° 0 mm 2 mps 684 mmHg 87%
    20:00 -2°C° 0 mm 2 mps 684 mmHg 88%
    21:00 -3°C° 0 mm 2 mps 683 mmHg 90%
    22:00 -4°C° 0 mm 2 mps 683 mmHg 92%
    23:00 -5°C° 0 mm 2 mps 683 mmHg 92%

    23 October, Tuesday

    Time Temperature Precipitation Wind Pressure Humidity
    00:00 -5°C° 0 mm 2 mps 683 mmHg 92%
    01:00 -3°C° 0 mm 1 mps 683 mmHg 92%
    02:00 -3°C° 0 mm 1 mps 683 mmHg 92%
    03:00 -3°C° 0 mm 1 mps 682 mmHg 91%
    04:00 -3°C° 0 mm 1 mps 682 mmHg 91%
    05:00 -3°C° 0 mm 1 mps 682 mmHg 90%
    06:00 -3°C° 0 mm 1 mps 683 mmHg 88%
    07:00 -3°C° 0 mm 1 mps 683 mmHg 87%
    08:00 -3°C° 0 mm 2 mps 683 mmHg 79%
    09:00 -1°C° 0 mm 2 mps 682 mmHg 71%
    10:00 +1°C° 0 mm 3 mps 682 mmHg 63%
    11:00 +2°C° 0 mm 3 mps 682 mmHg 61%
    12:00 +3°C° 0 mm 3 mps 682 mmHg 59%
    13:00 +4°C° 0 mm 3 mps 682 mmHg 57%
    14:00 +3°C° 0 mm 3 mps 682 mmHg 61%
    15:00 +3°C° 0 mm 2 mps 682 mmHg 66%
    16:00 +2°C° 0 mm 2 mps 682 mmHg 71%
    17:00 +1°C° 0 mm 2 mps 682 mmHg 75%
    18:00 -1°C° 0 mm 2 mps 682 mmHg 79%
    19:00 -2°C° 0 mm 2 mps 683 mmHg 83%
    20:00 -3°C° 0 mm 2 mps 683 mmHg 84%
    21:00 -1°C° 0 mm 1 mps 683 mmHg 86%
    22:00 -1°C° 0 mm 1 mps 683 mmHg 87%
    23:00 -1°C° 0 mm 1 mps 683 mmHg 87%
    Show more